User: anonymous
Location: Nantong Television Tower
(32.0188°N, 120.8512°E)
Time: 19:07:19
(UTC+08:00)
Language:

ATLAS 3B CENTAUR R/B - Orbit

View from above orbital plane
View from above orbital plane
View from above satellite
View from above satellite

Ground track
Ground track

The orbit data is extracted from the following two-line orbital elements,

1 28118U 03057B   14210.98394174  .00042132  00000-0  97037-3 0  6705
2 28118 028.1756 037.3775 3865522 247.0558 323.1759 07.76758732198926
Epoch (UTC): 29 July 2014 23:36:52
Eccentricity: 0.3865522
inclination: 28.1756°
perigee height: 228 km
apogee height: 8555 km
right ascension of ascending node: 37.3775°
argument of perigee: 247.0558°
revolutions per day: 7.76758732
mean anomaly at epoch: 323.1759°
orbit number at epoch: 19892

The dashed part of the orbit path shows where the satellite is in the earth's shadow,  

DLR